Regional Weather Roundup
Issued by NWS

Home | Current Version | Previous Version | Graphics & Text | Print | Product List | Glossary On
Versions: 1 2 3 4 5 6 7 8 9 10 11 12 13 14 15 16 17 18 19 20 21 22 23 24 25 26 27 28 29 30 31 32 33 34 35 36 37 38 39 40 41 42 43 44 45 46 47 48 49 50
000
ASUS45 KTFX 241810
RWRMT
MONTANA REGIONAL WEATHER ROUNDUP
NATIONAL WEATHER SERVICE GREAT FALLS MT
1200 PM MDT SAT JUN 24 2017

NOTE: "FAIR" INDICATES FEW OR NO CLOUDS BELOW 12000 FEET WITH NO
SIGNIFICANT WEATHER AND/OR OBSTRUCTIONS TO VISIBILITY.

MTZ001>007-043-241900-
WEST OF THE DIVIDE

CITY           SKY/WX    TMP DP  RH WIND       PRES   REMARKS
KALISPELL      SUNNY     70  44  39 VRB3      30.28S
MISSOULA       SUNNY     71  43  36 VRB3      30.27F
BUTTE          SUNNY     66  32  28 CALM      30.35F
MULLAN PASS    SUNNY     63  33  32 VRB5      30.38R
ANACONDA         N/A     68  37  32 NE5       30.33S
DEER LODGE       N/A     66  39  37 NE3       30.35F
EUREKA           N/A     70  43  37 MISG      30.29F
HAMILTON         N/A     68  39  34 NW5       30.29S
$$

MTZ008-052>055-241900-
SOUTHWEST MONTANA

CITY           SKY/WX    TMP DP  RH WIND       PRES   REMARKS
BOZEMAN        SUNNY     67  41  38 VRB3      30.33F
DILLON         SUNNY     65  39  38 VRB5      30.34S
W YELLOWSTONE  SUNNY     64  30  27 VRB7      30.38S
ENNIS          SUNNY     64  41  42 VRB3G12   30.39F
THREE FORKS      N/A     68  41  37 CALM      30.29F
$$

MTZ009-010-012-014-046-048-049-054-241900-
EAST SLOPES AND CENTRAL MONTANA

CITY           SKY/WX    TMP DP  RH WIND       PRES   REMARKS
CUT BANK       MOSUNNY   65  38  36 SE5       30.34S
GREAT FALLS    SUNNY     69  33  26 VRB7      30.33F
MALMSTROM AFB  SUNNY     68  38  33 NE6       30.33F
HELENA         SUNNY     70  40  33 NE7       30.31F
CHOTEAU          N/A     68  39  34 S8        30.36S
$$

MTZ011-013-016-021-045-047-050-051-241900-
NORTH CENTRAL MONTANA

CITY           SKY/WX    TMP DP  RH WIND       PRES   REMARKS
HAVRE          PTSUNNY   70  38  31 NW7       30.31S
LEWISTOWN      SUNNY     65  34  31 VRB5      30.35S
N BAR RANCH    PTSUNNY   63  32  31 VRB6G15   30.38S
CHINOOK          N/A     68  37  32 N7        30.31S
FORT BENTON      N/A     72  37  28 MISG        N/A
$$

MTZ017>020-022>027-061-062-241900-
NORTHEAST MONTANA

CITY           SKY/WX    TMP DP  RH WIND       PRES   REMARKS
GLASGOW        PTSUNNY   66  34  30 NW13      30.30S
JORDAN           N/A     70  33  25 N13G20    30.30S
SIDNEY         MOSUNNY   65  35  33 N10G28    30.29S
WOLF POINT     MOSUNNY   69  33  26 VRB7      30.29F
MALTA          MOSUNNY   70  34  26 VRB5      30.30S
PLENTYWOOD       N/A     61  36  39 N16G23    30.28S
POPLAR           N/A     64  36  34 NW14G24   30.30S
$$

MTZ028>42-056>058-241900-
SOUTHCENTRAL AND SOUTHEAST MONTANA

CITY           SKY/WX    TMP DP  RH WIND       PRES   REMARKS
BAKER          SUNNY     65  32  29 N14G23    30.31R
BILLINGS       MOSUNNY   70  35  27 N8        30.33F
LIVINGSTON     SUNNY     68  38  33 E8        30.33F
MILES CITY     MOSUNNY   71  31  22 NW14G24   30.29S
BIG TIMBER     SUNNY     64  36  34 VRB7      30.37F
FORSYTH          N/A     70  34  26 NW6G16    30.29S
ROUNDUP          N/A     69  28  21 SW5       30.21S
$$

REGIONAL REPORTS...DAKOTAS

CITY           SKY/WX    TMP DP  RH WIND       PRES   REMARKS
WILLISTON      PTSUNNY   64  35  34 N18G31    30.29S
MINOT          CLOUDY    57  43  59 NW22G30   30.21R
DICKINSON      SUNNY     62  31  31 N20G36    30.25R
BEACH            N/A     63  32  31 NW18G29   30.33S
CROSBY         PTSUNNY   59  37  44 N23G30    30.27S
TIOGA          PTSUNNY   57  37  47 N23G33    30.27S
WATFORD CITY     N/A     61  37  41 N18G28    30.27S
BISMARCK       MOSUNNY   61  38  42 NW21G31   30.22R
GRAND FORKS    LGT RAIN  55  53  93 W14G26    30.03R FOG
FARGO          CLOUDY    60  44  55 NW18G25   30.05R
BUFFALO SD       N/A     66  35  31 NW18G36   30.21S
RAPID CITY     MOSUNNY   72  32  23 NW23G31   30.27S
$$

REGIONAL REPORTS...WYOMING/IDAHO/WASHINGTON

CITY           SKY/WX    TMP DP  RH WIND       PRES   REMARKS
GILLETTE       SUNNY     68  32  26 W13G20    30.33F
SHERIDAN       SUNNY     70  36  28 NE14      30.34S
BUFFALO WY     SUNNY     64  36  35 N10G22    30.37S
CODY           SUNNY     64  34  32 VRB5      30.37F
YELLOWSTONE LA   N/A     56  35  45 VRB6      30.45S
IDAHO FALLS    SUNNY     71  44  37 NW3       30.28F
SALMON         SUNNY     68  37  32 NW5       30.26S
BOISE          SUNNY     76  42  29 N6        30.20S
SPOKANE        SUNNY     75  43  31 NE7       30.24S
$$

REGIONAL REPORTS...ALBERTA

CITY           SKY/WX    TMP DP  RH WIND       PRES   REMARKS
EDMONTON       SUNNY     68  50  52 W7        30.27S
CALGARY        MOSUNNY   64  37  36 N7        30.35S
LETHBRIDGE     MOSUNNY   66  43  42 NE5       30.33S
MEDICINE HAT   PTSUNNY   68  41  37 VRB2      30.30F
WATERTON GATE    N/A     64  43  45 NE5         N/A
MILK RIVER       N/A     68  41  37 S3          N/A
$$

REGIONAL REPORTS...SASKATCHEWAN

CITY           SKY/WX    TMP DP  RH WIND       PRES   REMARKS
SWIFT CURRENT  SUNNY     63  43  48 NW10G17   30.29R
REGINA         MOSUNNY   61  39  44 N14       30.28F
SASKATOON      PTSUNNY   68  39  34 W9        30.26S
CYPRESS HILLS    N/A     57  32  38 NW6         N/A
VAL MARIE        N/A     66  32  28 N6          N/A
ROCKGLEN         N/A     63  30  29 N13G18      N/A
ASSINIBOIA       N/A     70  46  43 NW12G17     N/A
$$



USA.gov is the U.S. government's official web portal to all federal, state and local government web resources and services.